timestamp,surface_pressure_avg,surface_temp_avg,battery_voltage,lat,long
2017-11-01 00:00:00+00:00,263.6231,10.65,12.81,47.84626,-54.09684
2017-11-01 00:10:00+00:00,256.3414,10.64,12.81,47.84626,-54.09684
2017-11-01 00:20:00+00:00,252.9998,10.64,12.89,47.84626,-54.09684
2017-11-01 00:30:00+00:00,243.5531,10.67,12.89,47.84626,-54.09684
2017-11-01 00:40:00+00:00,233.6115,10.64,12.89,47.84626,-54.09684
2017-11-01 00:50:00+00:00,231.6831,10.62,12.89,47.84626,-54.09684
2017-11-01 01:00:00+00:00,229.1198,10.63,12.81,47.84626,-54.09684
2017-11-01 01:10:00+00:00,219.8081,10.63,12.81,47.84626,-54.09684
2017-11-01 01:20:00+00:00,214.9081,10.61,12.81,47.84626,-54.09684
2017-11-01 01:30:00+00:00,217.1598,10.6,12.81,47.84626,-54.09684
2017-11-01 01:40:00+00:00,212.2047,10.6,12.89,47.84626,-54.09684
2017-11-01 01:50:00+00:00,205.0548,10.6,12.89,47.84626,-54.09684
2017-11-01 02:00:00+00:00,204.5981,10.6,12.81,47.84626,-54.09684
2017-11-01 02:10:00+00:00,203.6348,10.6,12.73,47.84626,-54.09684
2017-11-01 02:20:00+00:00,198.3065,10.6,12.81,47.84626,-54.09684
2017-11-01 02:30:00+00:00,196.3582,10.6,12.81,47.84626,-54.09684
2017-11-01 02:40:00+00:00,198.4431,10.6,12.89,47.84626,-54.09684
2017-11-01 02:50:00+00:00,198.3231,10.6,12.89,47.84626,-54.09684
2017-11-01 03:00:00+00:00,197.8964,10.6,12.81,47.84626,-54.09684
2017-11-01 03:10:00+00:00,197.9848,10.6,12.73,47.84626,-54.09684
2017-11-01 03:20:00+00:00,199.9348,10.6,12.81,47.84626,-54.09684
2017-11-01 03:30:00+00:00,205.5081,10.6,12.81,47.84626,-54.09684
2017-11-01 03:40:00+00:00,210.4998,10.6,12.89,47.84626,-54.09684
2017-11-01 03:50:00+00:00,213.9097,10.6,12.89,47.84626,-54.09684
2017-11-01 04:00:00+00:00,220.2998,10.6,12.81,47.84626,-54.09684
2017-11-01 04:10:00+00:00,226.8231,10.6,12.73,47.84626,-54.09684
2017-11-01 04:20:00+00:00,227.2547,10.6,12.81,47.84626,-54.09684
2017-11-01 04:30:00+00:00,230.1648,10.6,12.81,47.84626,-54.09684
2017-11-01 04:40:00+00:00,236.0031,10.6,12.89,47.84626,-54.09684
2017-11-01 04:50:00+00:00,238.8647,10.6,12.89,47.84626,-54.09684
2017-11-01 05:00:00+00:00,241.5815,10.6,12.81,47.84626,-54.09684
2017-11-01 05:10:00+00:00,244.4714,10.6,12.73,47.84626,-54.09684
2017-11-01 05:20:00+00:00,249.0148,10.59,12.81,47.84626,-54.09684
2017-11-01 05:30:00+00:00,251.3031,10.59,12.81,47.84626,-54.09684
2017-11-01 05:40:00+00:00,252.7514,10.6,12.81,47.84626,-54.09684
2017-11-01 05:50:00+00:00,257.7231,10.6,12.89,47.84626,-54.09684
2017-11-01 06:00:00+00:00,265.6048,10.6,12.81,47.84626,-54.09684
2017-11-01 06:10:00+00:00,269.2564,10.6,12.73,47.84626,-54.09684
2017-11-01 06:20:00+00:00,271.3364,10.6,12.81,47.84626,-54.09684
2017-11-01 06:30:00+00:00,280.9597,10.6,12.81,47.84626,-54.09684
2017-11-01 06:40:00+00:00,289.728,10.6,12.81,47.84626,-54.09684
2017-11-01 06:50:00+00:00,290.2414,10.6,12.89,47.84626,-54.09684
2017-11-01 07:00:00+00:00,294.4447,10.6,12.81,47.84626,-54.09684
2017-11-01 07:10:00+00:00,304.5897,10.6,12.73,47.84626,-54.09684
2017-11-01 07:20:00+00:00,311.6547,10.6,12.81,47.84626,-54.09684
2017-11-01 07:30:00+00:00,312.0779,10.6,12.81,47.84626,-54.09684
2017-11-01 07:40:00+00:00,317.6046,10.6,12.81,47.84626,-54.09684
2017-11-01 07:50:00+00:00,326.628,10.6,12.81,47.84626,-54.09684
2017-11-01 08:00:00+00:00,331.9763,10.6,12.81,47.84626,-54.09684
2017-11-01 08:10:00+00:00,333.2196,10.6,12.73,47.84626,-54.09684
2017-11-01 08:20:00+00:00,336.193,10.6,12.81,47.84626,-54.09684
2017-11-01 08:30:00+00:00,340.463,10.6,12.81,47.84626,-54.09684
2017-11-01 08:40:00+00:00,341.1046,10.6,12.81,47.84626,-54.09684
2017-11-01 08:50:00+00:00,342.838,10.6,12.81,47.84626,-54.09684
2017-11-01 09:00:00+00:00,341.8246,10.6,12.81,47.84626,-54.09684
2017-11-01 09:10:00+00:00,339.6163,10.6,12.73,47.84626,-54.09684
2017-11-01 09:20:00+00:00,338.558,10.59,12.81,47.84626,-54.09684
2017-11-01 09:30:00+00:00,340.8346,10.59,12.81,47.84626,-54.09684
2017-11-01 09:40:00+00:00,343.6996,10.59,12.81,47.84626,-54.09684
2017-11-01 09:50:00+00:00,344.1546,10.59,12.81,47.84626,-54.09684
2017-11-01 10:00:00+00:00,344.8313,10.59,12.81,47.84626,-54.09684
2017-11-01 10:10:00+00:00,345.9547,10.59,12.73,47.84626,-54.09684
2017-11-01 10:20:00+00:00,343.7213,10.59,12.81,47.84626,-54.09684
2017-11-01 10:30:00+00:00,339.8547,10.59,12.81,47.84626,-54.09684
2017-11-01 10:40:00+00:00,333.093,10.59,12.89,47.84626,-54.09684
2017-11-01 10:50:00+00:00,330.5829,10.58,13.05,47.84626,-54.09684
2017-11-01 11:00:00+00:00,324.7447,10.58,13.37,47.84626,-54.09684
2017-11-01 11:10:00+00:00,316.1813,10.58,13.6,47.84626,-54.09684
2017-11-01 11:20:00+00:00,308.938,10.55,13.92,47.84626,-54.09684
2017-11-01 11:30:00+00:00,308.1663,10.57,14.16,47.84626,-54.09684
2017-11-01 11:40:00+00:00,300.8613,10.59,13.84,47.84626,-54.09684
2017-11-01 11:50:00+00:00,288.0364,10.58,13.53,47.84626,-54.09684
2017-11-01 12:00:00+00:00,282.4914,10.55,13.44,47.84626,-54.09684
2017-11-01 12:10:00+00:00,278.8196,10.57,13.76,47.84626,-54.09684
2017-11-01 12:20:00+00:00,267.8264,10.56,13.6,47.84626,-54.09684
2017-11-01 12:30:00+00:00,254.1464,10.53,13.53,47.84626,-54.09684
2017-11-01 12:40:00+00:00,249.7964,10.51,13.44,47.84626,-54.09684
2017-11-01 12:50:00+00:00,246.9314,10.53,13.53,47.84626,-54.09684
2017-11-01 13:00:00+00:00,236.5464,10.5,13.44,47.84626,-54.09684
2017-11-01 13:10:00+00:00,231.1381,10.5,13.6,47.84626,-54.09684
2017-11-01 13:20:00+00:00,233.2015,10.5,13.84,47.84626,-54.09684
2017-11-01 13:30:00+00:00,229.4465,10.5,13.6,47.84626,-54.09684
2017-11-01 13:40:00+00:00,222.2098,10.5,13.53,47.84626,-54.09684
2017-11-01 13:50:00+00:00,222.8564,10.5,13.44,47.84626,-54.09684
2017-11-01 14:00:00+00:00,223.8731,10.5,14.0,47.84626,-54.09684
2017-11-01 14:10:00+00:00,217.3365,10.56,13.6,47.84626,-54.09684
2017-11-01 14:20:00+00:00,215.2965,10.57,13.44,47.84626,-54.09684
2017-11-01 14:30:00+00:00,217.2498,10.58,13.6,47.84626,-54.09684
2017-11-01 14:40:00+00:00,214.1181,10.59,13.53,47.84626,-54.09684
2017-11-01 14:50:00+00:00,210.0281,10.6,13.53,47.84626,-54.09684
2017-11-01 15:00:00+00:00,209.0665,10.6,13.44,47.84626,-54.09684
2017-11-01 15:10:00+00:00,207.7981,10.6,13.6,47.84626,-54.09684
2017-11-01 15:20:00+00:00,205.2231,10.6,13.44,47.84626,-54.09684
2017-11-01 15:30:00+00:00,205.6398,10.6,13.53,47.84626,-54.09684
2017-11-01 15:40:00+00:00,207.4964,10.6,13.44,47.84626,-54.09684
2017-11-01 15:50:00+00:00,205.6765,10.6,13.53,47.84626,-54.09684
2017-11-01 16:00:00+00:00,204.4114,10.6,13.53,47.84626,-54.09684
2017-11-01 16:10:00+00:00,208.3448,10.6,14.08,47.84626,-54.09684
2017-11-01 16:20:00+00:00,210.8964,10.6,13.53,47.84626,-54.09684
2017-11-01 16:30:00+00:00,209.4814,10.6,13.44,47.84626,-54.09684
2017-11-01 16:40:00+00:00,214.4914,10.6,13.44,47.84626,-54.09684
2017-11-01 16:50:00+00:00,220.5681,10.6,13.44,47.84626,-54.09684
2017-11-01 17:00:00+00:00,221.3648,10.6,13.44,47.84626,-54.09684
2017-11-01 17:10:00+00:00,224.4531,10.6,13.92,47.84626,-54.09684
2017-11-01 17:20:00+00:00,231.8347,10.6,13.6,47.84626,-54.09684
2017-11-01 17:30:00+00:00,235.6764,10.6,13.53,47.84626,-54.09684
2017-11-01 17:40:00+00:00,238.4114,10.6,13.68,47.84626,-54.09684
2017-11-01 17:50:00+00:00,246.0948,10.6,13.68,47.84626,-54.09684
2017-11-01 18:00:00+00:00,250.6881,10.6,13.53,47.84626,-54.09684
2017-11-01 18:10:00+00:00,249.6931,10.6,13.37,47.84626,-54.09684
2017-11-01 18:20:00+00:00,252.4231,10.6,13.53,47.84626,-54.09684
2017-11-01 18:30:00+00:00,264.0597,10.6,13.6,47.84626,-54.09684
2017-11-01 18:40:00+00:00,271.1264,10.6,13.53,47.84626,-54.09684
2017-11-01 18:50:00+00:00,270.8881,10.6,13.44,47.84626,-54.09684
2017-11-01 19:00:00+00:00,276.8614,10.6,13.44,47.84626,-54.09684
2017-11-01 19:10:00+00:00,290.3931,10.6,13.29,47.84626,-54.09684
2017-11-01 19:20:00+00:00,295.718,10.6,13.37,47.84626,-54.09684
2017-11-01 19:30:00+00:00,300.5614,10.6,13.37,47.84626,-54.09684
2017-11-01 19:40:00+00:00,309.2346,10.6,13.29,47.84626,-54.09684
2017-11-01 19:50:00+00:00,317.303,10.6,13.29,47.84626,-54.09684
2017-11-01 20:00:00+00:00,322.3763,10.6,13.21,47.84626,-54.09684
2017-11-01 20:10:00+00:00,332.4796,10.6,13.13,47.84626,-54.09684
2017-11-01 20:20:00+00:00,341.4596,10.59,13.13,47.84626,-54.09684
2017-11-01 20:30:00+00:00,346.368,10.59,13.13,47.84626,-54.09684
2017-11-01 20:40:00+00:00,349.658,10.59,13.13,47.84626,-54.09684
2017-11-01 20:50:00+00:00,353.2263,10.59,13.13,47.84626,-54.09684
2017-11-01 21:00:00+00:00,357.3146,10.59,13.05,47.84626,-54.09684
2017-11-01 21:10:00+00:00,361.0447,10.58,13.05,47.84626,-54.09684
2017-11-01 21:20:00+00:00,361.3529,10.58,13.13,47.84626,-54.09684
2017-11-01 21:30:00+00:00,359.593,10.58,13.05,47.84626,-54.09684
2017-11-01 21:40:00+00:00,357.7147,10.56,13.13,47.84626,-54.09684
2017-11-01 21:50:00+00:00,357.8563,10.55,13.13,47.84626,-54.09684
2017-11-01 22:00:00+00:00,357.3597,10.55,13.05,47.84626,-54.09684
2017-11-01 22:10:00+00:00,351.0996,10.55,12.97,47.84626,-54.09684
2017-11-01 22:20:00+00:00,347.9612,10.52,13.05,47.84626,-54.09684
2017-11-01 22:30:00+00:00,348.9896,10.51,13.05,47.84626,-54.09684
2017-11-01 22:40:00+00:00,347.8312,10.55,13.05,47.84626,-54.09684
2017-11-01 22:50:00+00:00,343.6863,10.57,13.05,47.84626,-54.09684
2017-11-01 23:00:00+00:00,338.8396,10.56,13.05,47.84626,-54.09684
2017-11-01 23:10:00+00:00,334.2479,10.55,12.97,47.84626,-54.09684
2017-11-01 23:20:00+00:00,325.6964,10.55,13.05,47.84626,-54.09684
2017-11-01 23:30:00+00:00,319.9446,10.5,13.05,47.84626,-54.09684
2017-11-01 23:40:00+00:00,318.0164,10.5,13.05,47.84626,-54.09684
2017-11-01 23:50:00+00:00,309.458,10.5,13.05,47.84626,-54.09684
